Other Public Products
Issued by NWS Charleston, SC

Current Version | Previous Version | Text Only | Print | Product List | Glossary Off
Versions: 1 2 3 4 5 6 7 8 9 10 11 12 13 14 15 16 17 18 19 20 21 22 23 24 25 26 27 28 29 30 31 32 33 34 35 36 37 38 39 40 41 42 43 44 45 46 47 48 49 50
249 FPUS82 KCHS 291312 OPUCHS TEST...KCHS/KSAV Gateway Observations...TEST National Weather Service Charleston SC 900 AM EDT WED MAR 29 2017 NOTE: "fair" indicates few or no clouds below 12,000 feet with no significant weather and/or obstructions to visibility. SCZ050-WAZ558-NCZ071-TXZ119-213-PAZ071-DCZ001-FLZ074-172-MI076- NYZ176-178-MAZ016-IL014-TNZ027-NJZ106-GAZ044-MD014-291400- ...Gateway Observations for Charleston International... CITY SKY/WX TMP DP RH WIND PRES REMARKS Chas Airport MOSUNNY 67 55 65 NE9 30.01R Seattle LGT RAIN 46 45 96 SE6 29.90F Charlotte MOSUNNY 63 51 65 N9 30.07R Dallas DFW MOCLDY 60 59 96 S7 29.66F Dallas Love CLOUDY 62 58 86 S12 29.67F Philladelphia MOSUNNY 46 35 65 N13 30.10R Wash National PTSUNNY 56 45 66 N12 30.11R Baltimore MOSUNNY 51 38 60 N13G21 30.11R Miami MOSUNNY 77 65 67 VRB5 30.03R Detroit SUNNY 40 32 73 NE5 30.29R WCI 37 Newark PTSUNNY 45 37 73 NW17 30.07R Laguardia CLOUDY 47 38 71 N12 30.06R J F K PTSUNNY 46 39 76 N17 30.06R Boston Logan CLOUDY 39 37 92 N10 30.01S WCI 32 Ft. Lauderdale MOSUNNY 76 66 71 VRB3 30.02R Chicago O`Hare CLOUDY 36 34 92 NE7 30.25R FOG WCI 30 Chicago Midway CLOUDY 38 36 92 NE8 30.25R WCI 32 Houston Bush MOCLDY 72 67 84 E13 29.81F Houston Hobby PTCLDY 72 68 87 E6 29.80F Nashville MOSUNNY 56 54 93 E5 30.06R Atlanta MOSUNNY 65 55 70 E7 30.06R $$ GAZ044-118-TXZ119-213-NCZ071-DCZ001-MDZ014-506-PAZ021-071-NJZ106- NYZ176-178-MAZ106-OHZ011-021-055-MIZ076-KYZ091-ILZ014-INZ047- MNZ060-ONZ431-291400- ...Gateway Observations for Savannah International... CITY SKY/WX TMP DP RH WIND PRES REMARKS Savannah Arpt MOSUNNY 68 59 73 N7 30.01R Atlanta MOSUNNY 65 55 70 E7 30.06R Charlotte MOSUNNY 63 51 65 N9 30.07R Dallas DFW MOCLDY 60 59 96 S7 29.66F Houston Bush MOCLDY 72 67 84 E13 29.81F Wash National PTSUNNY 56 45 66 N12 30.11R Wash Dulles PTSUNNY 54 47 77 N8 30.11R Baltimore MOSUNNY 51 38 60 N13G21 30.11R Philadelphia MOSUNNY 46 35 65 N13 30.10R Newark PTSUNNY 45 37 73 NW17 30.07R Laguardia CLOUDY 47 38 71 N12 30.06R J F K PTSUNNY 46 39 76 N17 30.06R Boston CLOUDY 39 37 92 N10 30.01S WCI 32 Pittsburg CLOUDY 45 38 76 NE7 30.19R Akron MOSUNNY 42 36 79 NE8 30.22R Cleveland MOSUNNY 42 35 76 CALM 30.28R Cincinnati MOSUNNY 46 39 76 E12 30.17R Columbus CLOUDY 43 40 90 NE6 30.21S Detroit SUNNY 40 32 73 NE5 30.29R WCI 37 Chicago O`Hare CLOUDY 36 34 92 NE7 30.25R FOG WCI 30 Minneapolis CLOUDY 45 33 63 SE6 30.22R Indianapolis PTSUNNY 47 39 74 E14 30.18R Toronto Canada MOSUNNY 37 28 70 N8 30.26R WCI 31 $$

USA.gov is the U.S. government's official web portal to all federal, state and local government web resources and services.